Weather History for KEUG - October, 2012

Change the Weather History Date:

Tuesday, October 16, 2012

  Actual Average Record
Temperature  
Mean Temperature 59 °F 52 °F  
Max Temperature 65 °F 64 °F 81 °F (2002)
Min Temperature 53 °F 41 °F 26 °F (1946)
Degree Days  
Heating Degree Days 6 12  
Month to date heating degree days 121 162  
Since 1 July heating degree days 240 350  
Cooling Degree Days 0 0  
Month to date cooling degree days 0 0  
Year to date cooling degree days 230 238  
Growing Degree Days 4 (Base 50)    
Moisture  
Dew Point 49 °F    
Average Humidity 68    
Maximum Humidity 93    
Minimum Humidity 43    
Precipitation  
Precipitation 0.00 in 0.10 in 1.02 in (1918)
Month to date precipitation 2.28 1.16  
Year to date precipitation 33.14 28.46  
Snow  
Snow 0.00 in - - ()
Month to date snowfall 0.0  
Since 1 July snowfall 0.0  
Since 1 September snowfall 0.0  
Snow Depth 0.00 in    
Sea Level Pressure  
Sea Level Pressure 30.10 in    
Wind  
Wind Speed 7 mph (WNW)    
Max Wind Speed 16 mph    
Max Gust Speed 22 mph    
Visibility 10 miles    
Events Rain    
T = Trace of Precipitation, MM = Missing Value Source: NWS Daily Summary

Daily Weather History Graph

Daily Weather History Graph

Search for Another Location

Airport or City:

Trip Planner

Search our weather history database for the weather conditions in past years. The results will help you decide how hot, cold, wet, or windy it might be!

Date:

Astronomy

Oct. 16, 2012 Rise Set
Actual Time 7:29 AM PDT 6:26 PM PDT
Civil Twilight 7:00 AM PDT 6:55 PM PDT
Nautical Twilight 6:26 AM PDT 7:28 PM PDT
Astronomical Twilight 5:53 AM PDT 8:02 PM PDT
Moon 9:03 AM PDT (10/16) 7:09 PM PDT (10/16)
Length of Visible Light 11h 55m
Length of Day
10h 56m
New Moon, 2% of the Moon is Illuminated
Oct 16
New Moon
Oct 21
First Quarter
Oct 29
Full
Nov 6
Last Quarter
Nov 13
New

Hourly Weather History & Observations

Time (PDT) Temp. Windchill Dew Point Humidity Pressure Visibility Wind Dir Wind Speed Gust Speed Precip Events Conditions
12:03 AM 64.4 °F - 62.6 °F 94% 29.80 in 9.0 mi SSW 10.4 mph - N/A   Overcast
12:54 AM 63.0 °F - 62.1 °F 97% 29.82 in 10.0 mi SSW 10.4 mph - 0.00 in Rain Light Rain
1:54 AM 63.0 °F - 61.0 °F 93% 29.84 in 10.0 mi West 8.1 mph - N/A   Overcast
2:18 AM 62.6 °F - 59.0 °F 88% 29.86 in 10.0 mi West 12.7 mph - N/A   Overcast
2:54 AM 60.1 °F - 57.0 °F 90% 29.87 in 10.0 mi WNW 9.2 mph - N/A   Overcast
3:49 AM 59.0 °F - 53.6 °F 82% 29.91 in 10.0 mi West 6.9 mph - N/A   Overcast
3:54 AM 59.0 °F - 54.0 °F 83% 29.91 in 10.0 mi West 6.9 mph - N/A   Overcast
4:31 AM 57.2 °F - 53.6 °F 88% 29.93 in 10.0 mi West 6.9 mph - N/A   Overcast
4:54 AM 57.2 °F - 53.6 °F 88% 29.95 in 10.0 mi WNW 8.1 mph - N/A   Mostly Cloudy
5:54 AM 55.9 °F - 51.1 °F 84% 30.01 in 10.0 mi West 8.1 mph - N/A   Partly Cloudy
6:54 AM 54.0 °F - 51.1 °F 90% 30.03 in 10.0 mi WSW 6.9 mph - N/A   Scattered Clouds
7:54 AM 54.0 °F - 52.0 °F 93% 30.07 in 10.0 mi WSW 9.2 mph - N/A   Scattered Clouds
8:54 AM 57.0 °F - 53.1 °F 87% 30.11 in 10.0 mi WSW 5.8 mph - N/A   Scattered Clouds
9:54 AM 59.0 °F - 53.1 °F 81% 30.14 in 10.0 mi WSW 9.2 mph - N/A   Scattered Clouds
10:54 AM 61.0 °F - 50.0 °F 67% 30.17 in 10.0 mi West 4.6 mph - N/A   Mostly Cloudy
11:54 AM 59.0 °F - 46.9 °F 64% 30.20 in 10.0 mi North 6.9 mph - N/A   Mostly Cloudy
12:54 PM 64.0 °F - 42.1 °F 45% 30.21 in 10.0 mi NW 6.9 mph - N/A   Mostly Cloudy
1:54 PM 64.0 °F - 43.0 °F 46% 30.21 in 10.0 mi NNW 6.9 mph - N/A   Mostly Cloudy
2:54 PM 64.0 °F - 41.0 °F 43% 30.21 in 10.0 mi Variable 4.6 mph - N/A   Mostly Cloudy
3:54 PM 62.1 °F - 42.1 °F 48% 30.22 in 10.0 mi North 6.9 mph - N/A   Scattered Clouds
4:54 PM 63.0 °F - 42.1 °F 46% 30.22 in 10.0 mi NNW 10.4 mph - N/A   Mostly Cloudy
5:54 PM 59.0 °F - 45.0 °F 60% 30.23 in 10.0 mi North 5.8 mph - N/A   Scattered Clouds
6:54 PM 53.1 °F - 45.0 °F 74% 30.25 in 10.0 mi North 9.2 mph - N/A   Scattered Clouds
7:54 PM 50.0 °F - 45.0 °F 83% 30.27 in 10.0 mi North 5.8 mph - N/A   Partly Cloudy
8:54 PM 48.9 °F - 44.1 °F 83% 30.29 in 10.0 mi Calm Calm - N/A   Partly Cloudy
9:54 PM 46.9 °F - 44.1 °F 90% 30.29 in 10.0 mi Calm Calm - N/A   Clear
10:54 PM 44.1 °F 42.5 °F 42.1 °F 93% 30.30 in 10.0 mi West 3.5 mph - N/A   Mostly Cloudy
11:54 PM 45.0 °F 43.5 °F 43.0 °F 93% 30.32 in 10.0 mi WSW 3.5 mph - N/A   Clear